Location: Colossi of Memnon
(25.7167°N, 32.6167°E)
Time: 11:01:37
(UTC+00:00)

Cosmos 2237 - Pass Details

Date: 05 March 2021
Orbit: 845 x 856 km, 70.8° (Epoch: 21 April)

Event Time Altitude Azimuth Distance (km) Brightness Sun altitude
Rises 02:53:44 0° 337° (NNW) 3,424 7.2 -17.7°
Reaches altitude 10° 02:56:12 10° 335° (NNW) 2,484 6.4 -17.2°
Maximum altitude 03:01:52 66° 254° (WSW) 923 4.1 -15.9°
Drops below altitude 10° 03:07:28 10° 172° (S) 2,467 6.7 -14.7°
Sets 03:09:56 0° 170° (S) 3,399 7.5 -14.1°
